Location: Recife
(8.0585°S, 34.8848°W)
Time: 12:24:29
(UTC-03:00)

Vanguard 1 - Pass Details

Date: 22 April 2026
Orbit: 654 x 3817 km, 34.3° (Epoch: 11 May)

Event Time Altitude Azimuth Distance (km) Brightness Sun altitude
Rises 01:54:47 0° 329° (NNW) 7,630 14.5 -51.3°
Reaches altitude 10° 02:06:37 10° 357° (N) 5,856 14.0 -48.4°
Maximum altitude 02:11:35 12° 14° (NNE) 5,283 13.9 -47.2°
Drops below altitude 10° 02:15:53 10° 31° (NNE) 4,993 13.9 -46.1°
Sets 02:23:10 0° 61° (ENE) 5,174 14.5 -44.3°
